Find OneWeb SL0370

NORAD ID: 49296 Int'l Des: 2021-090 Owner: ONEWEBN Country: UK Constellation: oneweb operational
LEOCIRCULARPOLARONEWEB_TYPE

リアルタイム位置

3D地球を読み込み中...

OneWeb SL0370について

説明を読み込み中...

次回通過

Passes for default location (London). Set your location on the main map for personalized predictions.

高度履歴

Loading altitude history...

軌道要素

1 49296U 21090T 26126.35476757 -.00000022 00000-0 -86564-4 0 9992
2 49296 87.9154 282.7854 0001565 99.3109 260.8202 13.20770454224348
Epoch: May 6, 2026 • Age: 11 hours

現在のステータス

高度 1200.6 km
速度 7.25 km/s
衛星直下点 -46.21°S, 128.02°E
打ち上げ日 Oct 14, 2021
運用期間 4.5 years
タイプ internet

技術仕様

分類 Payload
質量 148.00 kg
乾燥質量 140.00 kg
総質量 148.00 kg
長さ 1.30 m
直径 1.00 m
スパン 5.00 m
形状 Trapezoid+2 pan
製造者 ONEWUS
バスタイプ ARROW
フェーズステータス In Orbit
所有者/国 ONEWEBN/UK

Most Searched